Meteo orario Alicun

Oggi, 26 Ottobre, Lunedi

Tempo Temperatura Precipitazioni Vento Pressione Umidità
00:00 +13°C° 0.1 mm 3 m/s 695 mm Hg 80%
01:00 +13°C° 0.4 mm 4 m/s 695 mm Hg 83%
02:00 +13°C° 0.4 mm 4 m/s 695 mm Hg 86%
03:00 +12°C° 0.4 mm 5 m/s 695 mm Hg 89%
04:00 +12°C° 0.3 mm 5 m/s 695 mm Hg 87%
05:00 +11°C° 0.3 mm 4 m/s 696 mm Hg 85%
06:00 +10°C° 0.3 mm 4 m/s 696 mm Hg 82%
07:00 +11°C° 0 mm 4 m/s 696 mm Hg 75%
08:00 +11°C° 0 mm 4 m/s 696 mm Hg 68%
09:00 +11°C° 0 mm 4 m/s 697 mm Hg 61%
10:00 +12°C° 0 mm 4 m/s 697 mm Hg 55%
11:00 +12°C° 0 mm 5 m/s 697 mm Hg 49%
12:00 +13°C° 0 mm 5 m/s 697 mm Hg 43%
13:00 +13°C° 0 mm 5 m/s 697 mm Hg 42%
14:00 +13°C° 0 mm 5 m/s 697 mm Hg 40%
15:00 +13°C° 0 mm 5 m/s 697 mm Hg 39%
16:00 +12°C° 0 mm 4 m/s 697 mm Hg 43%
17:00 +11°C° 0 mm 3 m/s 697 mm Hg 46%
18:00 +10°C° 0 mm 2 m/s 698 mm Hg 50%
19:00 +10°C° 0 mm 2 m/s 698 mm Hg 53%
20:00 +9°C° 0 mm 2 m/s 698 mm Hg 55%
21:00 +10°C° 0 mm 1 m/s 699 mm Hg 57%
22:00 +9°C° 0 mm 1 m/s 699 mm Hg 60%
23:00 +9°C° 0 mm 1 m/s 699 mm Hg 62%

Domani, 27 Ottobre, Martedi

Tempo Temperatura Precipitazioni Vento Pressione Umidità
00:00 +8°C° 0 mm 1 m/s 698 mm Hg 64%
01:00 +8°C° 0 mm 1 m/s 698 mm Hg 65%
02:00 +7°C° 0 mm 1 m/s 698 mm Hg 66%
03:00 +7°C° 0 mm 1 m/s 697 mm Hg 67%
04:00 +7°C° 0 mm 1 m/s 697 mm Hg 68%
05:00 +6°C° 0 mm 1 m/s 697 mm Hg 69%
06:00 +6°C° 0 mm 1 m/s 697 mm Hg 69%
07:00 +8°C° 0 mm 1 m/s 698 mm Hg 63%
08:00 +9°C° 0 mm 1 m/s 698 mm Hg 56%
09:00 +11°C° 0 mm 1 m/s 699 mm Hg 49%
10:00 +12°C° 0 mm 1 m/s 699 mm Hg 44%
11:00 +13°C° 0 mm 2 m/s 699 mm Hg 39%
12:00 +15°C° 0 mm 2 m/s 699 mm Hg 34%
13:00 +15°C° 0 mm 2 m/s 699 mm Hg 33%
14:00 +16°C° 0 mm 2 m/s 698 mm Hg 32%
15:00 +16°C° 0 mm 3 m/s 698 mm Hg 31%
16:00 +15°C° 0 mm 2 m/s 698 mm Hg 36%
17:00 +14°C° 0 mm 2 m/s 698 mm Hg 41%
18:00 +12°C° 0 mm 1 m/s 698 mm Hg 46%
19:00 +12°C° 0 mm 1 m/s 698 mm Hg 48%
20:00 +11°C° 0 mm 1 m/s 698 mm Hg 50%
21:00 +10°C° 0 mm 0 m/s 698 mm Hg 53%
22:00 +10°C° 0 mm 0 m/s 698 mm Hg 55%
23:00 +9°C° 0 mm 0 m/s 698 mm Hg 56%

Dopodomani, 28 Ottobre, Mercoledi

Tempo Temperatura Precipitazioni Vento Pressione Umidità
00:00 +9°C° 0 mm 0 m/s 698 mm Hg 58%
01:00 +9°C° 0 mm 0 m/s 697 mm Hg 60%
02:00 +9°C° 0 mm 0 m/s 697 mm Hg 61%
03:00 +8°C° 0 mm 0 m/s 697 mm Hg 63%
04:00 +8°C° 0 mm 0 m/s 697 mm Hg 64%
05:00 +8°C° 0 mm 0 m/s 697 mm Hg 65%
06:00 +8°C° 0 mm 0 m/s 697 mm Hg 66%
07:00 +10°C° 0 mm 0 m/s 698 mm Hg 60%
08:00 +12°C° 0 mm 0 m/s 699 mm Hg 54%
09:00 +14°C° 0 mm 0 m/s 699 mm Hg 48%
10:00 +18°C° 0 mm 1 m/s 699 mm Hg 47%
11:00 +19°C° 0 mm 1 m/s 700 mm Hg 45%
12:00 +20°C° 0 mm 1 m/s 700 mm Hg 43%
13:00 +20°C° 0 mm 2 m/s 700 mm Hg 43%
14:00 +20°C° 0 mm 2 m/s 699 mm Hg 42%
15:00 +21°C° 0 mm 2 m/s 699 mm Hg 41%
16:00 +19°C° 0 mm 2 m/s 699 mm Hg 48%
17:00 +18°C° 0 mm 1 m/s 699 mm Hg 54%
18:00 +16°C° 0 mm 1 m/s 699 mm Hg 61%
19:00 +15°C° 0 mm 1 m/s 699 mm Hg 62%
20:00 +14°C° 0 mm 0 m/s 699 mm Hg 64%
21:00 +13°C° 0 mm 0 m/s 699 mm Hg 66%
22:00 +13°C° 0 mm 0 m/s 699 mm Hg 68%
23:00 +12°C° 0 mm 0 m/s 699 mm Hg 69%

29 Ottobre, Giovedi

Tempo Temperatura Precipitazioni Vento Pressione Umidità
00:00 +12°C° 0 mm 0 m/s 699 mm Hg 71%
01:00 +12°C° 0 mm 0 m/s 699 mm Hg 73%
02:00 +11°C° 0 mm 0 m/s 699 mm Hg 75%
03:00 +11°C° 0 mm 0 m/s 698 mm Hg 77%
04:00 +11°C° 0 mm 0 m/s 698 mm Hg 78%
05:00 +11°C° 0 mm 0 m/s 699 mm Hg 78%
06:00 +11°C° 0 mm 0 m/s 699 mm Hg 79%
07:00 +14°C° 0 mm 1 m/s 699 mm Hg 70%
08:00 +16°C° 0 mm 1 m/s 700 mm Hg 61%
09:00 +19°C° 0 mm 1 m/s 701 mm Hg 52%
10:00 +20°C° 0 mm 1 m/s 701 mm Hg 48%
11:00 +22°C° 0 mm 1 m/s 701 mm Hg 44%
12:00 +23°C° 0 mm 1 m/s 701 mm Hg 40%
13:00 +23°C° 0 mm 1 m/s 701 mm Hg 38%
14:00 +23°C° 0 mm 1 m/s 701 mm Hg 37%
15:00 +24°C° 0 mm 1 m/s 701 mm Hg 36%
16:00 +22°C° 0 mm 1 m/s 701 mm Hg 42%
17:00 +20°C° 0 mm 1 m/s 700 mm Hg 47%
18:00 +18°C° 0 mm 1 m/s 700 mm Hg 53%
19:00 +18°C° 0 mm 1 m/s 700 mm Hg 54%
20:00 +16°C° 0 mm 1 m/s 701 mm Hg 56%
21:00 +16°C° 0 mm 1 m/s 701 mm Hg 58%
22:00 +15°C° 0 mm 1 m/s 701 mm Hg 59%
23:00 +15°C° 0 mm 1 m/s 700 mm Hg 60%

30 Ottobre, Venerdi

Tempo Temperatura Precipitazioni Vento Pressione Umidità
00:00 +14°C° 0 mm 1 m/s 700 mm Hg 61%
01:00 +14°C° 0 mm 1 m/s 700 mm Hg 62%
02:00 +13°C° 0 mm 1 m/s 700 mm Hg 63%
03:00 +13°C° 0 mm 1 m/s 700 mm Hg 63%
04:00 +13°C° 0 mm 1 m/s 699 mm Hg 63%
05:00 +13°C° 0 mm 1 m/s 699 mm Hg 63%
06:00 +13°C° 0 mm 1 m/s 699 mm Hg 63%
07:00 +14°C° 0 mm 1 m/s 700 mm Hg 57%
08:00 +16°C° 0 mm 1 m/s 700 mm Hg 50%
09:00 +19°C° 0 mm 1 m/s 701 mm Hg 43%
10:00 +20°C° 0 mm 1 m/s 701 mm Hg 40%
11:00 +21°C° 0 mm 2 m/s 701 mm Hg 37%
12:00 +23°C° 0 mm 2 m/s 701 mm Hg 34%
13:00 +23°C° 0 mm 2 m/s 701 mm Hg 33%
14:00 +23°C° 0 mm 2 m/s 700 mm Hg 33%
15:00 +23°C° 0 mm 2 m/s 700 mm Hg 33%
16:00 +22°C° 0 mm 1 m/s 700 mm Hg 39%
17:00 +20°C° 0 mm 1 m/s 699 mm Hg 45%
18:00 +16°C° 0 mm 0 m/s 699 mm Hg 51%
19:00 +15°C° 0 mm 0 m/s 699 mm Hg 54%
20:00 +15°C° 0 mm 0 m/s 699 mm Hg 56%
21:00 +14°C° 0 mm 0 m/s 699 mm Hg 58%
22:00 +14°C° 0 mm 0 m/s 699 mm Hg 60%
23:00 +13°C° 0 mm 0 m/s 699 mm Hg 62%

31 Ottobre, Sabato

Tempo Temperatura Precipitazioni Vento Pressione Umidità
00:00 +13°C° 0 mm 0 m/s 699 mm Hg 64%
01:00 +13°C° 0 mm 0 m/s 699 mm Hg 65%
02:00 +12°C° 0 mm 0 m/s 698 mm Hg 66%
03:00 +12°C° 0 mm 0 m/s 698 mm Hg 67%
04:00 +11°C° 0 mm 0 m/s 698 mm Hg 69%
05:00 +11°C° 0 mm 0 m/s 698 mm Hg 71%
06:00 +11°C° 0 mm 0 m/s 698 mm Hg 72%
Mostrare altro

Abbiamo bisogno del tuo consenso

Meteoprog e i nostri fornitori di servizi possono memorizzare e accedere a dati personali come cookie, identificatori di dispositivi o altre tecnologie simili sul tuo dispositivo e possono elaborare tali dati per personalizzare i contenuti e gli annunci, nonché fornire funzionalità dei social media e analizzarne il traffico.

  • Archiviare e/o accedere alle informazioni sul tuo dispositivo

    Cookie, identificatori di dispositivi o altre informazioni possono essere memorizzati o resi accessibili sul tuo dispositivo per le finalità sopra indicate.

  • Annunci e contenuti personalizzati, misurazione di annunci e contenuti, approfondimenti sul pubblico e sviluppo di prodotti

    Gli annunci e i contenuti possono essere personalizzati in base a un profilo. È possibile aggiungere più dati per personalizzare meglio annunci e contenuti. È possibile misurare il rendimento degli annunci e dei contenuti. È possibile ricavare informazioni sul pubblico che ha visto gli annunci e i contenuti. Tali dati possono essere utilizzati per sviluppare o migliorare l'esperienza, i sistemi e il software dell'utente.

Cliccando su “Accetto”, acconsenti all'uso di cookie, identificatori di dispositivo, web beacon o altre tecnologie simili. Puoi modificare le impostazioni nel browser del tuo dispositivo.

Per determinati scopi, è possibile fare affidamento su interessi legali, piuttosto che sul consenso. Puoi approfondire questo argomento consultando la nostra Informativa sulla privacy e sui cookie.